Wind_Speed
59 58 57 55 54 52 51 51 51 52 53 54 55 56 58 58 59 59 59 59 59 58 58 56 55 53 51 50 50 51 52 53 53 51 51 52 52 51 51 51 50 50 48 47 48 50 52 52 52 51 49 46 44 42 39 35 30 28 27 25 23 22 21 21 21 21 22 21 21 20 19 18 17 17 17 18 19 19 19 19 18 18 18 18 19 19
58 58 57 56 55 54 53 52 52 53 54 55 56 57 58 58 57 56 55 53 52 52 50 49 47 45 44 44 44 45 46 47 48 48 49 50 51 52 52 52 51 50 48 48 50 52 53 54 54 53 51 49 47 43 39 34 30 28 27 26 24 22 21 21 21 22 22 22 21 20 19 18 17 17 18 18 19 19 19 19 19 18 18 19 19 19
57 57 56 55 54 54 54 53 52 53 54 55 55 55 54 53 51 49 47 46 46 45 45 44 44 43 43 42 42 42 42 43 44 45 46 48 50 52 53 53 51 50 49 49 51 53 54 55 55 55 53 52 49 45 40 34 29 28 28 26 24 22 21 21 21 22 22 22 22 21 19 18 18 18 18 19 19 19 19 19 19 19 19 19 20 20
53 54 54 53 53 53 52 52 52 52 52 51 50 49 47 46 45 44 43 43 43 43 43 43 43 43 42 41 40 40 40 41 42 42 43 44 47 49 51 52 51 50 50 50 52 54 55 55 56 56 55 53 51 46 40 33 29 29 29 27 25 22 21 21 21 22 22 22 22 21 20 19 19 19 18 19 19 19 19 19 19 19 20 21 21 21
50 51 51 51 52 52 51 51 50 49 48 46 45 44 44 44 44 44 44 45 45 46 45 45 45 44 43 41 40 39 38 39 39 39 39 41 43 45 47 48 48 48 49 50 53 54 55 56 56 56 56 54 52 47 41 34 30 29 30 28 26 24 22 22 22 22 23 22 21 21 20 20 20 19 19 18 18 19 19 19 20 20 21 22 22 21
47 48 49 50 51 51 50 49 48 47 46 45 44 44 45 45 46 46 47 48 48 48 47 47 46 46 44 42 39 38 37 36 36 37 37 39 39 40 41 41 41 42 44 48 51 54 55 56 56 57 56 55 53 48 41 34 31 31 31 29 27 25 23 23 22 22 22 22 21 21 20 20 20 20 19 18 18 19 20 20 21 22 23 23 22 20
46 47 48 49 50 50 50 49 48 48 48 47 47 47 47 47 48 48 48 48 48 48 48 47 47 46 45 42 40 37 36 35 35 36 37 38 38 38 37 36 35 36 39 45 50 53 54 56 56 57 56 55 53 48 41 35 31 31 32 30 28 26 24 23 23 22 22 21 21 21 21 21 20 20 19 18 19 19 20 22 22 23 24 23 21 19
47 48 48 49 49 49 50 50 50 50 50 49 48 47 47 47 47 47 47 47 47 47 47 46 46 45 43 41 39 37 36 35 36 37 38 39 39 38 36 34 33 33 37 43 48 52 54 55 56 57 56 55 53 48 41 35 32 32 33 31 29 27 25 24 23 22 22 21 21 21 21 21 20 20 19 19 19 20 21 22 23 23 23 21 19 17
49 49 49 49 49 50 51 51 50 49 47 45 44 43 43 43 43 44 44 44 44 44 43 43 42 41 40 38 37 36 36 36 36 37 38 39 39 38 37 35 33 34 38 44 48 51 53 55 56 57 56 55 53 48 41 35 32 32 33 32 30 28 26 24 23 22 22 22 22 22 22 21 21 20 20 20 20 21 21 22 22 21 20 19 17 17
51 51 50 49 49 50 51 50 48 45 42 40 39 39 39 39 39 39 39 39 39 39 39 39 38 37 36 35 35 35 35 36 36 37 38 39 38 38 37 35 34 35 40 45 48 51 54 55 57 57 56 55 52 47 40 35 33 33 33 32 31 29 26 24 23 22 22 22 22 22 22 22 21 21 20 20 21 21 21 20 20 19 18 17 16 17
51 50 50 50 49 49 48 46 44 41 38 37 36 36 36 36 35 34 34 34 34 34 34 34 34 34 33 33 33 34 34 35 36 37 37 38 38 37 36 35 34 36 41 46 49 52 54 56 57 57 56 55 51 46 39 35 33 33 33 33 31 29 27 25 24 23 23 23 23 22 22 22 22 21 21 21 21 20 20 19 19 18 17 16 16 17
48 48 48 48 47 46 45 43 40 38 36 35 34 34 34 32 31 30 30 30 30 30 30 30 31 31 31 32 32 33 33 34 35 35 36 36 37 36 36 34 34 37 42 47 50 52 55 56 57 57 55 53 50 44 39 35 34 34 34 33 32 30 28 26 25 24 23 23 23 23 23 22 22 22 21 21 20 20 19 19 19 18 17 17 17 18
44 44 44 44 44 43 41 39 37 36 35 35 35 34 33 31 29 28 29 28 28 28 28 28 29 29 30 31 31 32 32 32 33 33 34 35 35 35 34 34 35 39 44 48 51 53 55 56 56 55 54 52 48 43 38 35 34 34 34 33 32 30 28 27 25 24 24 24 24 23 23 22 22 21 21 20 20 19 19 19 19 18 18 17 18 18
41 41 41 41 41 40 39 38 37 37 37 38 37 36 34 31 30 29 29 28 28 27 27 28 28 29 29 30 30 30 30 30 30 31 32 33 34 34 33 33 35 40 44 48 52 54 56 56 55 54 52 49 45 41 37 35 35 35 35 34 32 31 28 27 25 25 24 24 24 23 23 22 22 21 20 20 20 19 19 19 19 19 18 18 18 19
38 39 39 39 39 39 39 39 39 39 40 40 39 37 34 32 31 30 30 29 29 28 28 28 28 28 29 29 29 29 28 28 28 28 29 31 32 32 32 33 35 39 44 48 52 55 56 56 54 51 49 46 43 39 36 35 35 35 35 34 33 31 29 27 25 25 24 24 24 23 22 22 21 21 20 20 20 20 20 20 19 19 19 19 19 20
38 38 39 39 39 39 39 40 40 40 40 40 38 36 34 33 32 31 31 31 30 29 29 28 28 28 29 29 29 28 27 26 26 26 27 28 29 30 30 31 34 38 43 48 52 54 55 53 51 48 46 43 40 38 36 36 36 36 35 34 33 31 29 27 25 25 24 24 24 23 22 22 21 20 20 20 20 20 20 20 20 20 20 20 20 21
40 40 40 40 41 41 41 41 41 40 39 38 37 35 34 33 33 33 33 32 32 31 30 29 29 29 29 30 30 29 28 27 26 25 25 26 27 28 29 30 33 38 43 48 52 53 53 50 47 44 42 40 38 37 36 36 36 36 36 35 33 31 29 27 25 25 25 24 24 23 22 21 21 20 20 20 20 20 21 21 21 21 20 20 21 21
41 41 42 42 42 42 41 40 39 38 37 35 35 34 34 34 34 34 34 34 33 32 31 30 30 30 31 31 31 30 29 28 27 25 25 25 26 27 28 29 32 37 43 48 51 52 50 47 43 41 40 38 37 37 37 37 37 37 36 35 33 31 28 26 25 25 25 24 24 23 22 21 21 20 20 20 20 21 21 21 21 21 21 21 22 22
40 40 41 41 41 40 39 38 37 35 34 33 33 33 34 34 35 35 35 35 34 33 33 32 31 31 31 32 32 32 31 30 28 26 25 25 26 26 27 29 32 37 44 48 50 50 48 45 41 39 38 37 37 37 37 38 38 37 36 35 33 31 28 26 25 25 24 24 24 23 22 22 21 21 20 20 21 21 21 22 22 22 22 22 22 23
38 38 38 37 37 36 36 35 34 33 32 32 33 33 34 35 35 35 35 35 35 34 34 33 32 32 31 31 32 32 32 31 30 28 26 25 26 26 28 29 32 38 45 48 49 49 47 43 40 38 37 37 38 38 38 38 38 38 36 35 33 30 28 26 25 25 24 24 23 23 22 22 21 21 21 21 21 21 22 22 22 22 22 23 23 23
37 36 35 34 33 33 33 32 31 31 31 32 33 34 34 35 35 35 36 35 35 35 35 34 34 33 32 32 31 32 32 32 31 29 27 26 26 27 28 29 33 39 46 48 48 48 46 43 40 38 37 37 38 39 39 39 39 38 36 35 32 30 28 26 25 25 24 24 23 23 22 22 22 21 21 21 21 22 22 22 22 22 23 23 23 23
38 37 35 34 33 32 32 31 30 30 31 32 33 33 34 34 35 35 36 36 36 36 35 35 34 34 33 32 32 32 32 33 32 30 28 27 26 27 28 30 34 41 46 48 48 47 45 42 39 37 37 37 38 39 39 39 39 38 37 35 33 30 28 27 26 25 24 24 23 23 23 22 22 22 21 22 22 22 22 22 22 23 23 23 24 23
38 37 36 35 34 33 33 32 31 31 31 31 32 32 33 33 34 35 35 36 36 36 36 36 35 35 34 33 32 32 33 33 33 32 30 28 27 27 28 31 36 42 47 48 47 46 44 41 38 36 36 37 38 39 40 40 39 38 37 35 33 31 29 27 26 25 24 24 23 23 23 23 22 22 22 22 22 22 22 22 23 23 23 24 24 23
39 38 37 36 35 35 35 33 32 31 31 31 31 32 32 33 33 34 34 35 35 35 35 35 35 35 35 34 33 34 34 34 34 33 31 30 28 27 28 32 38 44 47 47 47 45 42 39 37 35 36 37 38 39 40 40 39 38 37 35 34 32 30 28 26 25 24 24 24 24 23 23 23 22 22 22 23 23 23 23 23 23 24 24 24 24
40 39 38 37 37 37 36 35 33 32 31 31 31 32 32 32 32 33 33 33 33 33 33 33 33 34 34 34 34 34 35 35 35 34 33 31 29 28 29 33 39 45 47 48 47 45 41 38 36 35 36 37 39 39 40 40 39 38 37 36 34 32 30 28 27 25 24 24 24 24 24 23 23 23 23 23 23 23 23 23 23 24 24 24 24 24
40 40 39 39 39 39 38 36 34 32 31 32 33 33 33 32 32 32 32 32 32 32 32 32 32 32 33 33 34 34 35 36 36 36 35 33 31 29 30 34 40 45 48 48 47 45 41 38 36 35 36 38 39 40 40 40 39 39 38 36 35 33 31 29 27 25 24 24 24 24 24 24 24 24 24 24 24 24 23 23 24 24 25 25 25 24
41 41 40 40 40 39 38 37 35 33 33 34 36 36 35 33 33 32 32 32 31 31 31 30 31 31 32 32 33 34 35 36 37 37 36 35 32 31 31 36 41 46 48 49 47 45 41 38 36 36 37 38 39 40 40 40 39 39 38 37 35 33 31 29 27 25 24 24 24 25 24 24 24 24 24 24 24 24 24 24 24 25 25 25 25 25
42 42 41 41 41 40 39 37 36 35 35 37 38 38 37 35 34 33 32 31 31 30 30 30 30 30 30 30 31 33 34 37 38 39 38 37 34 32 33 37 43 47 50 50 48 45 41 38 37 37 38 39 40 41 40 40 40 39 38 37 35 33 31 29 27 25 24 25 25 25 25 25 25 25 25 25 25 25 25 25 25 25 26 26 26 26
43 43 42 42 41 40 39 38 37 36 37 38 39 40 38 36 34 33 32 31 31 30 30 30 30 30 30 30 31 32 34 36 38 40 40 38 36 34 35 39 45 49 51 51 49 46 41 39 38 38 39 40 41 41 41 40 40 39 39 37 36 33 31 29 26 25 25 25 25 25 25 25 25 25 25 25 25 25 25 25 25 26 26 26 26 26
45 44 44 43 42 41 40 39 39 38 38 39 40 40 38 36 34 33 32 32 31 31 30 30 30 30 30 30 30 32 34 36 38 40 41 40 38 37 38 42 47 51 52 52 49 45 42 39 39 39 40 41 41 41 41 40 40 40 39 38 36 34 31 29 27 25 25 25 25 25 25 25 26 26 26 26 26 26 26 26 26 26 26 27 27 27
47 46 45 44 43 42 41 41 40 39 39 39 40 40 38 36 35 33 33 32 31 31 30 30 30 30 30 30 30 31 33 35 38 40 42 42 40 39 40 44 48 51 52 51 48 45 42 40 39 40 41 42 42 42 41 41 40 40 39 38 37 34 32 29 27 26 25 25 25 25 25 25 26 26 26 26 26 26 26 26 26 26 27 27 27 27
49 48 47 46 45 44 43 42 41 41 41 41 41 40 39 37 36 34 33 32 31 30 30 30 29 29 30 30 30 30 31 33 36 39 42 42 41 40 41 45 48 49 49 48 47 44 41 39 39 39 40 42 42 42 42 41 40 40 40 39 37 35 33 30 28 26 25 25 24 25 25 25 26 26 26 27 27 26 26 26 26 27 27 27 27 27
52 51 50 48 47 46 45 44 43 43 42 42 42 41 40 38 37 36 34 32 30 29 29 29 29 28 28 28 28 27 28 30 33 37 41 42 42 41 42 44 46 46 47 47 45 43 41 39 38 39 40 41 42 42 42 41 41 40 40 39 38 36 34 31 29 27 25 24 24 24 25 25 26 26 27 27 27 27 27 27 27 27 28 28 28 28
54 53 52 51 50 49 47 46 45 44 44 44 44 43 41 40 40 38 36 32 30 29 29 28 28 27 27 26 25 25 25 26 29 34 38 40 41 41 42 43 44 45 46 46 45 43 41 39 39 39 40 41 42 42 42 42 41 41 40 39 38 36 34 32 30 27 26 25 24 24 25 25 26 27 27 27 27 27 27 27 27 28 28 28 28 28
57 56 55 54 53 51 50 49 47 46 46 45 45 44 43 42 41 39 36 33 30 29 29 28 27 26 25 24 23 22 22 23 25 29 34 37 38 39 39 41 42 44 46 46 45 43 42 40 40 40 41 41 42 43 43 42 41 41 40 39 38 37 35 33 31 28 27 25 24 24 24 25 26 27 27 28 28 28 28 28 28 28 29 29 29 29
59 58 57 56 55 54 53 51 50 48 47 46 45 44 43 42 41 39 36 33 31 30 30 29 28 26 25 23 22 21 21 22 23 25 28 31 33 34 36 39 42 44 46 46 45 44 43 42 41 41 41 43 44 44 43 42 41 40 40 39 38 38 36 34 32 30 27 26 24 24 24 25 26 27 28 28 28 28 28 29 29 29 29 29 29 29
61 60 59 59 57 56 55 54 52 50 49 47 46 45 43 41 40 38 36 33 32 32 32 30 28 26 25 24 23 22 22 23 24 25 26 28 29 31 34 37 40 44 46 47 46 46 45 44 42 42 42 44 45 44 43 42 41 40 39 38 38 37 37 35 33 31 28 26 25 24 24 25 26 27 28 29 29 29 29 29 30 30 30 30 30 30
62 62 61 60 59 58 57 56 54 52 50 48 47 45 43 41 40 38 36 34 33 33 33 32 29 27 25 24 24 23 24 25 25 26 27 27 29 30 33 35 39 42 45 46 47 47 46 45 43 43 43 44 45 45 43 42 40 39 38 38 38 37 37 35 34 31 29 27 25 25 25 25 26 28 29 30 30 30 30 30 30 30 30 31 31 31
62 62 62 61 61 60 59 57 56 54 52 50 48 46 44 43 41 39 37 36 36 35 35 33 30 27 25 24 24 24 25 26 26 27 27 28 29 31 33 35 38 41 44 45 46 46 45 44 43 42 43 44 44 44 43 41 39 38 37 37 37 37 37 36 34 32 29 27 26 25 25 26 27 28 29 30 31 30 30 31 31 31 31 31 31 32
62 62 62 62 61 61 60 59 57 55 53 51 49 47 46 44 43 41 40 38 38 37 36 34 31 28 26 25 25 25 26 26 27 28 29 29 30 32 34 36 39 41 43 44 45 44 43 42 41 41 42 43 43 43 41 39 38 37 37 36 36 36 36 35 34 32 30 28 26 25 25 26 27 28 30 31 31 31 31 31 31 31 31 31 32 32
61 61 61 61 61 61 60 59 57 56 54 52 50 49 48 46 45 43 42 41 40 39 38 36 33 30 28 27 26 26 26 27 28 29 30 31 32 33 35 37 39 41 43 44 43 43 41 40 40 41 42 43 42 41 40 38 37 37 36 36 35 35 35 34 34 33 31 29 27 26 26 26 27 29 30 31 31 31 31 32 32 32 32 32 32 32
61 61 60 60 60 59 59 58 57 56 55 53 52 51 50 48 46 45 44 43 42 41 40 37 35 32 29 28 27 27 27 28 29 30 31 32 33 35 36 38 40 41 43 43 43 41 40 39 40 41 42 42 41 40 39 38 37 37 36 35 35 34 34 34 34 33 31 30 28 26 26 26 27 29 30 31 32 32 32 32 32 32 32 32 32 33
60 60 60 59 59 58 58 57 57 56 55 54 53 52 51 50 48 46 45 44 43 42 41 39 37 33 31 29 28 28 28 29 30 31 32 33 34 35 36 38 39 41 42 43 42 41 39 39 40 41 41 41 40 39 38 38 37 37 36 36 35 35 34 34 33 33 31 30 28 27 27 27 28 29 31 32 33 33 33 33 33 33 33 33 33 33
60 60 59 59 58 57 57 56 56 56 55 55 54 53 52 51 50 48 47 46 44 44 43 41 39 35 32 30 29 29 29 30 31 31 32 33 34 35 36 37 38 40 41 42 41 40 39 39 40 40 41 40 39 39 38 38 37 37 36 36 35 35 34 33 32 32 31 30 29 28 27 28 28 30 31 32 33 34 34 34 34 34 33 33 34 34
58 59 59 58 58 57 56 56 56 55 55 54 54 54 53 52 51 50 48 47 46 45 45 44 41 38 34 32 30 31 31 32 32 32 33 33 34 35 36 36 38 39 40 41 40 40 40 40 40 40 39 39 38 38 38 37 37 37 37 36 35 35 34 34 33 32 31 30 29 29 29 29 30 31 32 33 34 34 34 34 34 34 34 34 34 34
57 57 57 57 57 56 56 55 55 55 54 54 54 54 53 53 52 51 50 48 47 47 46 46 44 41 37 35 34 33 34 34 33 33 33 34 34 35 36 36 37 38 39 40 40 40 39 39 39 39 39 38 38 38 37 37 37 37 37 36 36 35 35 34 33 32 31 31 30 30 30 30 31 32 33 34 34 35 35 35 34 34 34 34 34 34
55 55 55 56 56 55 55 54 54 54 53 53 53 53 53 53 52 52 51 50 49 48 48 47 46 44 41 38 37 36 36 36 35 34 34 34 34 35 36 37 38 39 40 40 40 40 40 39 39 39 38 38 38 37 37 37 37 37 37 37 36 36 35 34 33 33 32 32 31 31 31 32 32 33 33 34 35 35 35 35 35 35 35 35 35 35
54 53 53 53 54 54 54 54 53 53 53 53 53 53 53 53 52 52 51 51 50 49 49 48 48 46 44 42 40 39 38 37 37 36 35 34 35 36 37 38 38 39 40 41 41 40 40 39 39 39 38 38 38 37 37 37 37 37 37 37 36 36 35 34 34 33 33 33 32 32 33 33 33 33 34 35 35 36 36 35 35 35 35 35 35 35
53 52 51 51 51 52 53 53 53 52 52 52 52 52 53 52 52 51 51 51 50 49 49 49 49 48 46 44 42 41 40 40 39 37 36 36 36 37 38 39 39 40 41 41 41 40 40 39 39 39 38 38 38 38 37 37 37 37 37 37 36 36 35 35 34 34 33 33 33 33 33 33 34 34 35 35 36 36 36 36 36 36 36 36 36 36
53 52 51 50 50 50 51 52 52 52 52 52 52 52 52 52 52 52 51 51 50 50 50 50 50 49 47 45 43 42 42 42 41 40 38 37 37 38 38 39 40 41 42 42 41 41 40 40 39 39 39 38 38 38 37 37 37 37 37 36 36 36 36 35 35 34 34 33 33 33 33 34 34 35 36 36 36 37 37 36 36 36 36 36 36 36
53 53 52 50 49 49 50 51 51 52 51 51 51 52 52 52 53 53 53 53 52 52 51 52 51 50 48 45 44 43 44 44 43 41 40 39 38 39 40 41 41 42 42 42 42 41 41 41 40 40 39 39 38 38 37 37 37 37 36 36 36 35 35 35 35 34 34 34 33 33 34 34 35 36 36 37 37 37 37 37 37 36 36 36 36 36
Wind_Direction
262 262 262 261 261 259 258 257 256 254 254 254 255 257 259 261 263 264 265 265 266 266 267 268 268 269 270 269 268 266 265 265 266 268 270 273 275 277 277 274 271 269 270 271 270 267 264 263 263 265 268 271 274 277 277 275 263 245 229 224 225 231 237 242 246 250 253 255 256 257 257 257 257 257 257 257 257 258 259 259 259 260 261 263 264 264
263 263 263 263 263 263 262 261 260 259 258 259 260 261 263 264 265 265 265 266 267 268 268 270 271 273 274 274 271 268 265 264 265 266 268 270 272 272 270 267 264 264 266 267 267 263 260 259 260 262 264 267 270 272 273 271 260 242 228 223 224 229 236 241 245 249 252 254 255 256 256 255 255 254 254 255 255 256 257 256 256 256 258 259 260 259
264 264 265 265 265 265 265 265 265 264 265 265 266 266 266 266 266 266 266 268 269 270 271 272 274 276 277 277 274 270 266 264 263 265 266 269 269 268 265 262 260 260 263 265 264 260 256 255 256 259 261 263 266 268 269 267 256 239 227 222 222 227 234 240 245 249 252 254 255 255 254 253 252 251 252 252 254 254 255 254 254 254 255 255 255 253
265 266 266 267 267 268 268 268 269 269 270 270 270 269 268 268 268 269 271 272 274 274 275 276 277 278 278 277 274 270 266 263 262 263 264 267 268 266 263 261 260 260 262 263 262 258 253 251 253 256 258 260 262 263 264 262 251 236 225 220 221 225 232 238 244 248 252 255 256 256 255 254 252 251 251 252 253 254 254 253 252 251 251 251 250 247
267 267 268 268 269 270 270 271 272 272 273 273 272 271 270 271 272 274 276 277 278 278 279 279 279 279 278 277 274 269 265 262 260 260 262 265 266 265 264 262 262 262 263 264 262 257 251 249 250 253 256 258 259 259 260 258 248 233 223 219 219 222 227 234 240 246 250 254 255 256 255 254 253 253 253 254 255 255 254 252 251 249 248 247 244 241
268 268 269 269 270 271 272 273 274 275 275 275 275 274 274 275 276 277 277 278 279 279 279 279 278 278 278 277 273 269 264 260 258 258 259 261 261 262 262 262 262 262 264 264 261 255 249 246 247 250 254 256 256 257 257 255 245 231 222 218 217 219 224 229 235 242 247 251 253 254 254 253 253 254 254 255 256 256 254 252 249 247 245 242 239 236
268 269 269 270 270 272 273 274 276 276 277 276 276 275 275 275 275 275 275 276 277 277 277 277 276 276 276 275 272 267 263 259 257 255 255 255 256 256 257 257 259 261 265 265 260 253 247 245 246 249 252 254 254 254 254 252 243 231 222 218 216 218 221 226 232 237 243 248 250 251 252 252 252 253 254 254 255 254 252 249 246 243 240 237 234 231
269 269 269 270 271 272 273 274 275 275 275 274 273 272 271 271 271 272 273 274 274 275 275 274 274 274 273 272 269 264 260 257 255 254 253 252 251 251 252 252 255 261 266 264 258 251 246 244 245 248 250 252 251 251 252 250 242 231 223 217 215 216 220 224 229 234 240 245 248 249 249 250 250 250 251 251 251 250 248 245 241 238 235 232 230 229
267 268 269 269 269 270 271 271 272 271 270 268 267 267 267 268 269 270 272 273 273 273 273 272 271 270 269 267 264 260 257 255 254 253 252 251 250 249 249 250 255 261 265 261 255 249 244 242 243 246 248 249 249 249 250 247 239 230 223 217 214 214 218 223 227 232 238 243 246 247 247 247 247 247 247 246 246 245 243 240 237 235 232 230 228 229
265 266 267 267 268 268 268 267 266 265 263 262 262 264 265 268 270 272 273 273 273 272 271 270 268 267 265 263 260 258 256 255 254 253 253 251 250 248 248 250 256 262 262 257 251 246 242 240 241 243 245 246 247 247 247 244 237 229 222 216 213 212 216 220 225 230 236 242 245 246 246 246 245 245 244 244 244 243 240 238 235 234 232 230 230 231
263 264 265 265 266 265 264 262 261 259 258 258 261 264 268 271 273 274 274 274 273 272 270 268 266 264 263 261 260 258 257 256 255 255 255 253 251 249 248 251 257 260 258 252 247 242 239 238 239 240 242 243 244 245 244 240 233 227 221 216 212 211 214 218 222 228 234 240 244 245 245 244 244 243 243 243 243 242 240 238 236 234 233 232 232 232
261 262 262 263 263 262 260 258 256 255 256 259 264 268 272 274 274 274 274 274 273 272 269 267 265 263 262 261 260 259 258 257 257 257 256 255 252 250 250 252 256 256 252 247 243 239 236 236 236 238 240 241 242 242 240 235 230 224 220 215 211 210 212 215 219 225 232 238 241 242 242 242 242 242 243 243 243 243 241 239 237 235 234 233 233 233
258 258 258 259 258 257 256 255 255 256 259 264 268 272 273 272 271 271 271 273 273 273 270 268 265 263 261 260 259 259 258 258 258 258 257 255 253 252 252 253 253 250 246 243 239 236 234 234 235 236 238 239 239 238 235 231 226 222 218 214 211 210 211 214 218 224 231 236 239 240 240 240 240 241 242 243 243 243 242 240 238 236 235 234 234 234
253 253 253 253 253 254 254 255 256 259 263 267 270 271 271 269 268 268 269 272 273 273 272 269 266 264 262 260 259 259 259 259 259 259 258 256 254 253 253 254 251 247 244 240 237 235 233 233 233 234 235 235 234 233 230 226 223 220 217 213 210 209 211 214 218 224 231 236 238 238 237 238 238 239 241 242 242 243 242 240 238 237 235 235 234 234
248 248 249 249 250 252 254 256 259 262 266 268 270 269 268 267 266 266 268 270 272 273 272 270 268 265 262 261 260 259 260 261 261 261 260 258 256 255 255 255 252 247 243 239 236 234 232 231 231 231 231 230 229 228 225 222 220 218 215 211 209 208 210 213 218 225 231 236 238 237 236 236 236 238 239 240 241 242 242 240 239 237 236 235 235 234
246 246 247 248 250 253 256 259 262 265 267 268 268 267 266 266 265 265 267 268 270 271 271 271 269 266 263 261 260 260 261 262 264 264 263 261 260 258 257 256 252 246 241 238 235 233 231 230 229 228 227 226 226 225 222 220 217 215 212 210 208 208 209 213 219 225 231 235 237 236 235 234 235 236 237 239 240 241 241 240 238 237 236 235 235 234
249 249 249 250 252 255 258 261 263 265 266 266 266 266 265 265 264 264 265 266 267 269 270 270 269 267 264 262 261 260 261 263 264 265 264 264 263 262 260 257 251 244 240 237 235 232 230 228 226 225 225 225 224 223 220 217 214 212 210 208 207 207 209 213 219 225 231 234 235 235 234 233 234 234 236 237 238 239 239 239 237 236 235 234 234 234
253 252 253 254 255 258 260 261 263 264 264 265 265 265 264 264 264 264 264 264 265 267 268 269 268 267 265 263 262 261 261 262 262 263 263 264 265 265 262 258 251 243 238 236 234 231 228 226 224 224 224 224 224 222 218 215 212 210 208 207 206 207 209 213 219 225 230 233 234 234 233 233 233 233 234 235 237 237 238 237 236 235 234 234 233 233
256 255 255 256 257 258 259 260 261 262 263 263 263 263 263 263 263 263 264 264 264 265 266 267 268 267 266 264 263 262 261 261 261 261 261 262 265 266 264 258 249 240 235 233 232 230 227 225 224 225 225 225 223 221 217 213 210 208 207 206 206 206 209 213 219 225 229 232 233 233 233 233 232 232 233 234 235 236 236 236 235 234 233 233 233 232
257 256 256 256 256 257 258 258 260 261 261 262 262 262 262 263 263 264 264 264 264 264 264 265 265 266 266 264 263 262 261 261 261 261 260 262 265 267 264 257 247 237 232 231 230 228 226 225 225 226 227 226 224 220 216 212 208 207 206 205 205 206 209 213 219 224 228 231 232 233 233 232 232 232 233 233 234 235 235 234 233 232 232 232 232 231
258 256 255 254 254 255 256 257 258 259 260 260 260 261 261 262 263 263 264 264 264 264 263 263 263 264 264 263 262 260 260 260 259 259 259 261 264 265 262 254 243 234 228 228 228 227 226 226 227 228 229 227 223 219 215 211 208 206 205 205 205 206 209 213 218 222 226 229 231 232 233 232 232 232 232 233 234 234 234 233 232 231 231 231 231 230
257 256 254 252 252 253 255 257 258 258 259 259 260 260 261 261 262 262 263 263 263 263 263 262 262 261 261 261 260 258 257 257 257 256 256 258 261 262 258 249 238 228 224 225 226 226 226 227 228 229 229 226 223 218 214 211 208 206 205 204 205 206 209 212 216 220 224 228 230 232 232 232 232 232 232 233 233 234 233 232 231 230 230 230 230 229
255 254 253 252 252 253 255 257 257 258 258 259 259 260 260 260 261 261 261 262 262 262 261 261 260 260 259 259 258 257 255 254 254 253 253 254 257 257 252 243 231 223 220 222 224 225 226 227 228 229 228 226 222 218 214 211 209 207 206 205 205 206 208 211 215 219 223 227 229 231 232 232 232 232 232 232 233 233 233 232 230 229 229 229 229 228
252 252 252 252 252 253 255 255 256 257 258 259 259 260 260 260 260 260 260 261 261 261 261 260 260 260 259 258 257 256 254 253 252 251 251 251 253 253 247 237 226 219 217 220 222 224 225 227 229 229 228 225 221 217 214 212 210 208 207 206 205 206 208 210 214 218 222 226 229 231 232 232 231 231 232 232 233 233 232 231 230 229 229 229 228 227
252 251 251 251 251 252 253 254 255 256 257 259 259 259 259 259 260 260 260 261 262 263 263 262 262 261 260 259 257 256 254 252 251 249 248 248 249 248 242 232 223 217 216 219 221 223 225 227 229 230 228 225 221 218 215 213 211 209 208 206 206 206 208 210 213 217 221 226 229 231 231 231 231 231 231 231 232 232 231 230 229 229 228 228 227 226
252 252 252 251 251 252 252 253 254 254 255 256 257 258 259 260 260 261 261 262 264 265 266 265 264 262 261 259 257 255 253 251 249 247 246 246 246 243 236 228 220 216 215 218 221 223 225 228 230 231 229 226 222 219 216 213 212 210 209 207 207 207 208 210 213 217 221 226 229 231 232 231 231 231 231 231 231 231 230 230 229 228 227 227 226 225
253 253 253 253 253 253 253 253 253 252 252 253 253 255 257 259 260 261 261 263 265 266 266 266 266 264 263 261 259 256 253 251 248 245 244 243 242 238 232 224 218 214 214 217 220 223 225 229 231 231 229 226 223 220 217 214 212 211 209 208 208 208 209 211 213 218 222 227 230 231 232 231 231 230 230 230 230 230 230 229 228 227 226 226 225 224
252 253 253 253 254 254 254 253 252 250 250 250 250 252 254 257 259 260 261 262 263 264 265 265 266 266 265 264 262 258 254 250 247 244 242 240 238 234 228 221 215 213 213 216 220 223 226 230 232 232 230 227 224 221 217 215 213 211 210 209 209 209 210 212 215 219 224 228 231 232 232 232 231 231 230 230 230 229 229 228 227 226 225 225 224 223
252 252 252 252 253 254 254 253 251 249 248 248 248 249 252 255 258 259 260 261 261 262 263 264 265 265 266 265 263 260 256 251 247 244 240 237 233 229 224 217 212 212 213 216 220 223 227 230 232 232 229 227 225 222 219 216 213 212 211 210 210 210 211 213 216 221 226 230 232 233 233 232 232 231 230 230 229 229 228 228 226 225 224 223 223 222
251 251 252 252 252 252 253 252 250 248 247 247 248 248 249 253 255 257 259 259 259 260 261 263 264 264 265 264 263 260 257 252 248 243 239 234 230 225 219 213 210 211 214 217 220 224 228 231 232 231 229 228 226 223 220 217 214 212 211 211 210 211 212 214 218 223 227 231 233 234 234 234 233 232 231 230 229 228 228 227 226 225 223 223 222 221
251 251 251 251 251 251 251 251 250 248 246 246 246 247 248 250 253 255 257 257 258 258 260 261 262 263 264 264 263 262 260 255 250 244 238 232 227 222 216 210 209 212 216 219 223 226 229 231 232 231 230 228 226 224 222 218 215 213 212 211 211 211 213 215 219 223 227 231 233 234 235 235 234 233 232 230 229 228 228 227 226 224 223 222 221 220
249 250 250 250 250 250 250 250 249 247 245 244 244 246 247 250 252 254 256 256 256 256 257 259 260 262 263 264 265 266 264 258 251 243 235 228 222 217 212 208 209 212 217 222 226 229 232 233 233 232 230 228 227 225 223 220 217 214 212 212 211 212 213 216 220 223 226 229 232 234 235 236 235 234 233 231 230 229 228 227 226 225 223 221 220 220
248 249 249 249 249 249 249 249 249 248 246 244 244 244 246 249 252 254 254 254 254 254 255 256 258 260 261 263 265 266 264 258 249 240 230 221 214 209 206 206 208 212 218 224 228 230 233 234 234 233 232 230 228 226 224 221 218 215 214 213 213 213 215 217 219 222 225 227 230 232 234 236 236 235 234 232 231 229 228 227 226 225 223 221 220 219
246 247 248 248 248 248 248 248 248 248 247 246 244 244 245 248 251 252 253 253 252 252 253 254 255 256 258 260 261 261 260 254 245 234 223 213 206 202 202 205 208 213 218 224 228 231 232 233 234 233 233 231 230 227 224 222 219 217 215 214 214 215 216 217 219 221 223 226 229 231 234 235 236 236 235 233 231 229 228 227 226 225 223 221 220 219
245 246 246 247 247 247 247 247 248 248 248 247 246 245 245 247 249 251 252 251 251 251 251 251 251 252 253 253 254 253 251 247 239 229 217 208 203 202 204 207 211 214 219 225 229 232 232 233 234 234 233 232 230 227 225 222 220 218 216 215 215 216 217 218 219 221 223 225 228 231 233 235 236 236 235 233 231 229 228 227 226 225 223 222 220 219
243 244 245 245 246 246 246 247 247 247 248 248 248 247 247 247 248 250 251 251 249 248 248 247 247 246 246 246 245 243 240 238 234 226 217 211 208 208 210 213 215 218 223 227 231 233 233 234 235 236 235 232 229 227 225 223 220 218 217 217 217 217 218 218 220 221 223 226 228 231 233 235 236 236 235 233 231 229 227 227 226 225 223 222 220 219
242 242 243 244 244 245 245 246 246 246 247 248 249 248 248 247 247 248 250 249 248 247 246 244 242 241 240 239 238 235 233 232 230 227 223 220 219 218 218 219 220 223 226 230 232 233 234 235 237 237 236 232 228 225 224 222 220 219 219 218 218 218 219 219 220 221 223 226 229 231 233 235 236 236 235 233 231 229 227 226 225 224 223 221 220 218
241 241 242 242 243 243 244 244 245 245 246 247 248 248 248 247 245 245 246 246 246 245 244 242 239 236 234 234 233 231 230 231 231 230 229 228 227 226 225 224 224 226 229 231 232 233 235 237 238 238 236 231 228 225 223 221 220 220 220 220 220 220 220 220 221 222 224 227 230 232 234 236 236 237 236 234 231 229 227 226 225 224 222 221 220 218
240 240 240 241 242 242 243 243 244 244 245 246 247 247 247 245 244 242 241 242 242 243 242 240 236 233 230 229 229 229 230 231 232 232 232 231 229 229 228 228 228 229 230 231 232 234 235 238 239 237 234 229 225 223 222 221 221 220 221 221 221 221 221 221 222 223 225 228 230 233 235 236 237 237 236 234 232 229 227 226 225 224 223 221 220 219
239 239 239 240 240 241 242 242 243 243 244 244 244 245 244 243 241 239 238 238 239 240 240 238 234 230 227 226 226 227 229 230 232 232 232 231 230 230 230 230 230 231 231 232 233 234 235 237 236 233 230 226 223 222 222 222 221 222 222 223 223 223 223 223 224 225 226 229 231 234 236 237 238 237 236 234 232 229 227 226 225 224 223 222 221 219
239 238 238 238 239 240 240 241 241 241 242 242 242 242 242 241 240 237 235 236 236 237 237 236 232 228 225 224 225 226 227 229 230 230 230 230 230 230 230 230 231 231 232 233 233 234 235 234 231 228 224 222 222 221 222 222 223 223 224 224 224 225 225 225 225 226 227 229 232 234 237 238 238 237 236 234 232 229 227 225 225 224 223 222 221 220
239 238 237 237 237 237 238 239 239 239 239 239 240 240 240 240 239 237 235 234 235 235 235 234 231 227 225 224 225 226 228 229 229 229 229 229 229 230 230 231 231 232 232 233 233 234 233 230 227 224 221 221 220 220 221 222 223 224 225 225 225 225 226 226 226 227 228 230 233 235 238 239 239 237 235 233 230 228 226 224 224 223 223 222 221 220
239 238 237 236 235 235 236 236 237 237 237 237 238 238 238 238 238 237 235 234 233 233 233 232 230 227 226 226 227 228 230 231 231 230 230 229 229 230 231 231 232 232 232 232 232 231 230 227 223 221 220 220 220 221 221 222 223 224 225 225 226 226 227 227 227 228 229 231 234 237 239 240 239 237 234 232 229 227 225 223 223 222 222 221 220 219
239 238 237 235 234 234 233 234 234 235 235 235 236 236 236 237 236 236 234 233 232 231 231 231 229 228 226 226 228 230 232 233 233 233 232 231 230 230 231 232 232 232 232 231 230 228 226 223 221 220 220 220 221 221 222 223 224 225 225 226 227 227 227 227 228 229 231 233 236 239 241 240 239 236 233 230 228 226 224 222 222 221 221 221 220 219
239 238 237 236 234 233 232 232 232 233 233 233 233 234 234 235 235 234 233 232 231 230 229 229 229 228 227 228 229 231 233 234 235 235 234 233 232 231 231 231 231 231 230 229 228 226 223 221 220 220 220 220 221 222 223 223 224 225 226 226 227 227 227 227 228 230 232 235 238 240 240 240 238 235 232 229 227 225 223 222 221 221 221 221 220 219
238 238 238 237 235 234 232 231 231 231 231 231 231 232 232 232 233 233 232 231 230 229 228 228 228 228 229 230 230 231 232 233 234 235 235 234 232 232 231 231 230 229 228 226 225 223 222 221 220 220 221 221 222 223 223 224 225 225 226 227 227 227 227 227 228 230 232 236 238 240 240 239 237 234 231 228 226 224 223 221 220 220 220 220 220 219
236 237 238 237 237 235 233 231 231 230 229 229 229 229 230 230 231 231 231 231 230 228 227 227 227 228 229 231 231 232 232 232 233 233 234 234 233 231 230 229 229 227 225 224 222 221 220 220 221 221 222 222 223 224 224 225 225 226 227 227 227 228 228 228 229 230 233 236 238 239 239 237 235 232 230 227 225 223 222 221 220 219 219 220 220 219
235 235 236 237 237 236 234 233 231 230 229 227 227 227 228 228 229 229 229 230 229 228 227 226 226 227 228 230 231 231 230 231 231 232 233 233 233 231 229 228 226 225 223 222 221 220 220 220 221 222 223 223 224 224 225 225 226 227 227 228 228 229 229 229 230 232 234 237 238 239 238 236 234 231 228 226 224 222 221 220 219 219 219 219 219 218
233 232 233 235 236 236 235 234 232 230 229 227 226 225 226 226 226 227 227 227 227 226 226 225 225 225 227 228 229 228 228 228 229 231 232 232 232 230 228 226 225 223 221 220 220 219 220 221 222 223 223 224 225 225 226 226 227 228 228 229 229 230 230 230 232 233 235 237 238 238 237 235 232 229 226 224 222 221 220 219 219 218 218 219 219 218
232 230 230 232 233 234 234 233 232 231 229 227 225 224 224 224 224 224 224 224 224 224 224 223 223 224 225 226 227 227 226 226 227 228 229 230 230 229 227 225 223 222 220 219 219 219 220 221 222 223 224 225 226 226 227 227 228 229 230 230 231 231 232 232 233 235 236 237 237 236 234 232 230 227 224 222 220 220 219 218 218 218 218 218 218 218
231 229 228 230 231 231 231 231 231 231 230 228 226 224 223 223 222 222 222 222 222 222 221 220 220 221 223 225 226 226 225 225 225 226 228 229 229 227 225 223 222 220 219 219 219 219 220 221 222 223 224 225 226 227 228 228 229 230 231 232 232 233 234 234 235 236 237 237 236 234 232 230 227 225 223 221 219 219 218 218 217 217 217 218 218 217
Height
3066 3068 3070 3072 3073 3074 3075 3076 3077 3078 3079 3079 3080 3080 3080 3079 3079 3079 3079 3078 3078 3078 3077 3077 3077 3077 3077 3078 3078 3078 3078 3078 3078 3077 3077 3077 3077 3076 3077 3078 3079 3080 3080 3080 3081 3081 3079 3078 3077 3079 3080 3081 3082 3083 3084 3085 3086 3087 3088 3089 3090 3091 3092 3093 3094 3095 3095 3096 3096 3097 3097 3097 3097 3097 3097 3097 3097 3098 3098 3098 3098 3099 3099 3099 3099 3099
3062 3063 3065 3066 3068 3069 3070 3071 3073 3074 3074 3075 3075 3075 3075 3075 3074 3074 3074 3074 3074 3074 3073 3073 3073 3073 3073 3073 3073 3074 3074 3074 3074 3074 3074 3075 3075 3074 3074 3075 3076 3077 3077 3078 3078 3079 3077 3075 3074 3075 3077 3078 3079 3080 3082 3083 3084 3085 3086 3087 3088 3089 3090 3091 3092 3093 3094 3094 3095 3095 3095 3095 3095 3095 3095 3096 3096 3096 3096 3096 3097 3097 3097 3097 3097 3098
3058 3059 3060 3062 3063 3064 3064 3066 3067 3068 3069 3069 3069 3069 3069 3069 3069 3069 3069 3070 3069 3069 3069 3069 3069 3069 3069 3069 3069 3070 3070 3070 3070 3070 3070 3071 3071 3071 3071 3072 3073 3074 3074 3075 3076 3076 3075 3072 3071 3071 3073 3075 3076 3078 3080 3081 3082 3083 3084 3085 3086 3087 3088 3089 3090 3091 3091 3092 3093 3093 3094 3094 3094 3094 3094 3094 3094 3095 3095 3095 3095 3095 3096 3096 3096 3096
3055 3055 3056 3057 3058 3059 3060 3061 3062 3063 3063 3063 3063 3063 3063 3063 3063 3064 3064 3064 3064 3064 3064 3065 3065 3065 3065 3065 3065 3065 3066 3066 3066 3066 3067 3068 3068 3068 3069 3069 3069 3070 3071 3072 3073 3073 3072 3069 3068 3068 3070 3072 3074 3075 3077 3078 3080 3081 3082 3083 3084 3085 3086 3087 3088 3089 3089 3090 3090 3091 3092 3092 3092 3092 3092 3092 3093 3093 3093 3094 3094 3094 3094 3095 3095 3095
3050 3051 3052 3053 3054 3055 3056 3057 3058 3058 3058 3058 3058 3058 3058 3058 3058 3058 3059 3059 3059 3059 3059 3060 3060 3060 3060 3061 3061 3061 3062 3062 3063 3063 3064 3065 3065 3065 3065 3066 3066 3067 3068 3069 3070 3069 3068 3066 3065 3065 3067 3069 3071 3073 3074 3075 3077 3078 3079 3080 3081 3082 3084 3085 3085 3086 3087 3088 3089 3089 3090 3090 3090 3090 3090 3090 3091 3091 3091 3092 3092 3092 3093 3093 3094 3094
3046 3047 3048 3049 3050 3050 3052 3053 3053 3054 3054 3054 3054 3054 3054 3054 3054 3054 3054 3055 3055 3055 3055 3055 3055 3056 3056 3056 3057 3057 3058 3058 3059 3060 3060 3061 3061 3061 3062 3062 3063 3063 3065 3065 3066 3065 3064 3063 3062 3063 3064 3066 3068 3070 3071 3072 3074 3075 3076 3077 3079 3080 3081 3083 3084 3085 3085 3086 3087 3087 3087 3088 3088 3088 3088 3089 3089 3089 3090 3090 3090 3091 3092 3092 3092 3092
3043 3044 3045 3045 3046 3047 3048 3048 3049 3050 3050 3049 3049 3049 3049 3049 3050 3050 3050 3050 3051 3051 3051 3051 3051 3051 3052 3052 3053 3054 3054 3055 3055 3056 3057 3058 3058 3058 3058 3058 3059 3060 3061 3062 3062 3061 3060 3060 3060 3061 3062 3064 3065 3067 3068 3070 3071 3072 3074 3075 3076 3077 3079 3080 3082 3083 3084 3085 3085 3085 3085 3086 3086 3086 3086 3087 3087 3088 3088 3089 3089 3090 3090 3091 3091 3091
3040 3040 3041 3042 3043 3044 3044 3045 3045 3046 3046 3045 3045 3045 3045 3045 3046 3046 3047 3047 3047 3047 3047 3047 3047 3048 3048 3049 3049 3050 3050 3051 3052 3053 3054 3054 3054 3054 3055 3055 3055 3057 3058 3058 3058 3058 3058 3057 3058 3058 3060 3061 3063 3064 3065 3066 3068 3070 3071 3072 3074 3075 3076 3078 3079 3080 3081 3083 3083 3084 3084 3084 3085 3085 3085 3085 3086 3086 3087 3087 3088 3089 3089 3089 3089 3089
3037 3037 3038 3039 3040 3040 3041 3041 3042 3042 3042 3042 3042 3042 3042 3042 3042 3043 3043 3043 3043 3044 3044 3044 3044 3044 3044 3045 3045 3046 3047 3047 3048 3049 3049 3050 3050 3051 3052 3052 3053 3054 3055 3055 3055 3055 3055 3055 3055 3056 3057 3059 3060 3061 3062 3064 3065 3067 3068 3070 3071 3072 3074 3075 3077 3078 3079 3080 3081 3082 3082 3083 3083 3083 3084 3084 3085 3085 3085 3086 3086 3087 3087 3087 3087 3088
3035 3035 3035 3035 3036 3037 3037 3038 3038 3039 3039 3038 3038 3038 3039 3039 3039 3040 3040 3040 3040 3040 3040 3040 3040 3040 3041 3041 3042 3043 3043 3044 3044 3045 3045 3046 3047 3048 3048 3049 3050 3051 3051 3051 3051 3052 3052 3052 3053 3054 3055 3056 3057 3058 3060 3061 3063 3065 3066 3067 3069 3070 3071 3073 3075 3076 3077 3078 3079 3080 3080 3081 3081 3082 3082 3083 3083 3084 3084 3084 3085 3085 3085 3086 3086 3086
3032 3032 3032 3032 3032 3033 3034 3035 3035 3035 3035 3035 3035 3035 3036 3036 3036 3036 3036 3036 3036 3036 3036 3036 3036 3037 3037 3038 3039 3039 3040 3040 3041 3042 3042 3043 3044 3045 3045 3046 3047 3048 3048 3048 3048 3049 3050 3050 3050 3051 3052 3054 3055 3056 3057 3058 3060 3062 3063 3065 3066 3067 3069 3071 3072 3074 3075 3076 3077 3078 3078 3079 3080 3080 3080 3081 3081 3081 3082 3082 3083 3083 3084 3084 3084 3085
3028 3028 3028 3028 3029 3030 3030 3031 3032 3032 3032 3032 3032 3033 3033 3033 3034 3033 3033 3033 3033 3033 3033 3033 3034 3034 3035 3035 3035 3036 3036 3037 3038 3039 3040 3040 3041 3042 3042 3043 3044 3045 3046 3046 3046 3046 3047 3047 3048 3049 3050 3051 3052 3053 3054 3056 3057 3059 3061 3062 3064 3065 3066 3068 3070 3071 3073 3074 3075 3076 3076 3077 3077 3078 3078 3079 3079 3080 3080 3080 3081 3081 3082 3082 3083 3083
3024 3025 3025 3025 3026 3027 3028 3028 3029 3029 3029 3030 3030 3030 3030 3030 3031 3030 3030 3030 3030 3030 3030 3030 3030 3031 3032 3032 3032 3033 3033 3034 3035 3035 3036 3037 3038 3038 3039 3040 3041 3042 3043 3043 3043 3044 3045 3045 3046 3046 3047 3049 3049 3050 3051 3053 3055 3057 3058 3060 3061 3062 3064 3066 3067 3069 3070 3072 3073 3074 3075 3075 3075 3076 3076 3077 3077 3077 3078 3079 3079 3080 3080 3081 3081 3082
3021 3021 3021 3022 3022 3024 3025 3025 3026 3026 3027 3027 3027 3027 3027 3027 3028 3028 3028 3028 3028 3028 3028 3028 3028 3028 3029 3029 3029 3030 3030 3031 3032 3033 3033 3034 3034 3035 3035 3036 3038 3039 3039 3039 3040 3041 3042 3042 3043 3044 3045 3046 3046 3047 3048 3050 3052 3054 3056 3057 3058 3060 3061 3063 3065 3067 3068 3070 3071 3072 3073 3073 3073 3074 3074 3075 3075 3075 3076 3077 3077 3078 3079 3079 3080 3080
3017 3018 3018 3019 3019 3020 3021 3022 3023 3023 3024 3024 3025 3024 3024 3024 3025 3025 3025 3025 3025 3025 3025 3025 3025 3025 3026 3026 3027 3027 3028 3029 3030 3030 3031 3031 3031 3032 3033 3033 3035 3035 3036 3036 3037 3038 3038 3039 3040 3040 3042 3043 3043 3044 3045 3047 3049 3051 3053 3055 3056 3057 3059 3061 3062 3064 3066 3067 3069 3070 3070 3071 3071 3072 3072 3073 3073 3074 3074 3075 3075 3076 3077 3078 3078 3079
3015 3015 3015 3015 3016 3018 3019 3020 3020 3020 3021 3021 3021 3021 3021 3021 3022 3022 3022 3022 3022 3022 3023 3023 3023 3023 3023 3024 3024 3025 3025 3026 3027 3028 3028 3029 3029 3029 3030 3030 3032 3033 3033 3034 3034 3035 3035 3036 3037 3038 3039 3040 3041 3042 3043 3045 3047 3049 3050 3052 3054 3055 3057 3058 3060 3062 3063 3065 3066 3067 3068 3069 3069 3070 3070 3071 3071 3072 3072 3073 3074 3075 3075 3076 3076 3077
3011 3012 3012 3013 3014 3015 3016 3016 3017 3017 3018 3018 3018 3018 3018 3018 3018 3018 3019 3019 3019 3020 3020 3020 3020 3020 3021 3021 3021 3022 3023 3024 3025 3025 3026 3026 3026 3027 3027 3028 3029 3030 3030 3031 3031 3032 3033 3034 3035 3036 3037 3038 3039 3040 3041 3043 3045 3046 3048 3050 3051 3053 3054 3056 3057 3059 3061 3062 3064 3065 3066 3066 3067 3068 3069 3069 3070 3070 3071 3071 3072 3073 3074 3075 3075 3075
3008 3009 3010 3010 3011 3012 3013 3013 3014 3014 3014 3014 3015 3015 3015 3015 3015 3015 3015 3015 3016 3016 3017 3017 3018 3018 3018 3018 3019 3019 3020 3021 3022 3023 3024 3024 3024 3024 3025 3025 3026 3027 3028 3028 3029 3030 3031 3032 3033 3034 3035 3036 3037 3038 3039 3040 3042 3044 3045 3047 3049 3050 3052 3053 3055 3057 3059 3060 3061 3062 3063 3064 3065 3066 3066 3067 3068 3068 3069 3070 3070 3071 3072 3073 3073 3074
3005 3005 3007 3007 3008 3009 3010 3010 3010 3011 3011 3011 3011 3011 3011 3011 3011 3012 3012 3012 3013 3014 3014 3014 3015 3015 3015 3016 3016 3017 3017 3018 3018 3020 3020 3021 3021 3021 3022 3023 3024 3025 3025 3026 3027 3028 3029 3030 3031 3032 3034 3035 3035 3036 3037 3039 3040 3041 3043 3045 3046 3048 3049 3051 3053 3055 3056 3058 3059 3060 3061 3062 3063 3064 3065 3065 3066 3066 3067 3068 3069 3070 3070 3071 3071 3072
3000 3002 3003 3004 3005 3006 3006 3007 3007 3008 3008 3008 3008 3008 3008 3008 3008 3009 3009 3009 3010 3010 3011 3011 3011 3012 3013 3013 3013 3014 3015 3015 3015 3016 3017 3018 3018 3019 3019 3020 3021 3022 3023 3024 3025 3026 3027 3028 3029 3030 3032 3033 3034 3035 3035 3036 3038 3039 3041 3042 3044 3045 3047 3049 3050 3052 3054 3055 3057 3058 3059 3060 3060 3061 3062 3063 3064 3065 3065 3066 3067 3068 3069 3069 3070 3070
2997 2998 3000 3001 3002 3002 3003 3004 3004 3005 3004 3004 3004 3005 3005 3005 3005 3005 3006 3006 3007 3007 3007 3008 3008 3009 3010 3010 3010 3011 3012 3012 3012 3013 3014 3015 3015 3015 3016 3017 3018 3019 3020 3021 3022 3024 3025 3026 3027 3028 3030 3031 3032 3033 3034 3035 3036 3037 3039 3040 3042 3043 3045 3046 3048 3050 3051 3053 3055 3056 3057 3058 3058 3060 3060 3061 3062 3063 3063 3064 3065 3066 3067 3067 3068 3069
2994 2994 2996 2998 2999 2999 3000 3000 3001 3001 3001 3001 3001 3001 3001 3002 3002 3002 3002 3003 3003 3004 3004 3005 3005 3005 3006 3007 3008 3009 3009 3009 3009 3010 3010 3012 3012 3013 3013 3014 3015 3017 3019 3020 3020 3021 3023 3024 3025 3026 3027 3029 3030 3031 3032 3033 3034 3035 3037 3038 3040 3041 3042 3044 3045 3047 3049 3050 3052 3053 3055 3055 3056 3057 3058 3059 3060 3060 3061 3062 3063 3064 3065 3065 3066 3067
2990 2991 2993 2994 2995 2996 2997 2997 2997 2998 2998 2998 2998 2998 2998 2999 2999 2999 2999 2999 3000 3000 3000 3001 3001 3002 3002 3003 3005 3005 3006 3006 3006 3007 3008 3008 3009 3010 3010 3012 3014 3015 3017 3018 3018 3019 3020 3022 3023 3024 3025 3027 3028 3029 3030 3031 3032 3033 3035 3036 3037 3039 3040 3042 3043 3045 3046 3048 3050 3051 3052 3053 3054 3055 3056 3057 3058 3059 3059 3060 3061 3062 3063 3064 3065 3065
2987 2988 2989 2990 2992 2993 2994 2994 2994 2995 2995 2995 2995 2995 2995 2995 2995 2995 2995 2996 2996 2997 2997 2997 2998 2999 2999 3000 3001 3002 3003 3003 3004 3004 3005 3006 3006 3007 3008 3010 3011 3013 3015 3016 3016 3017 3018 3020 3021 3022 3023 3025 3026 3027 3028 3029 3030 3031 3032 3034 3035 3036 3038 3040 3041 3043 3044 3046 3047 3049 3050 3051 3052 3053 3054 3055 3055 3056 3057 3058 3059 3060 3061 3062 3063 3064
2983 2984 2985 2987 2988 2989 2990 2990 2991 2991 2992 2992 2993 2993 2992 2992 2992 2992 2993 2993 2993 2994 2994 2995 2995 2995 2995 2996 2997 2998 2999 3000 3000 3001 3002 3003 3004 3005 3006 3007 3009 3011 3013 3014 3014 3015 3016 3017 3019 3020 3021 3022 3024 3025 3026 3027 3028 3029 3030 3032 3033 3034 3036 3037 3039 3040 3042 3044 3045 3047 3048 3049 3050 3051 3052 3053 3054 3055 3055 3056 3057 3058 3059 3060 3061 3062
2980 2981 2982 2983 2984 2985 2986 2987 2987 2988 2989 2989 2990 2989 2989 2989 2989 2989 2989 2990 2990 2991 2991 2991 2991 2991 2992 2993 2993 2994 2995 2996 2997 2998 2999 3000 3001 3003 3004 3005 3007 3009 3010 3011 3012 3013 3014 3015 3017 3018 3019 3020 3021 3023 3024 3025 3026 3027 3029 3030 3031 3032 3034 3035 3037 3038 3040 3041 3043 3045 3046 3047 3048 3049 3050 3051 3051 3052 3053 3054 3055 3056 3057 3058 3059 3060
2976 2977 2978 2979 2980 2981 2982 2983 2984 2985 2985 2986 2986 2986 2985 2986 2986 2986 2986 2987 2987 2988 2988 2988 2988 2988 2989 2989 2990 2990 2991 2992 2993 2994 2995 2997 2998 3000 3001 3002 3004 3006 3008 3009 3010 3010 3012 3013 3015 3016 3017 3018 3019 3020 3022 3023 3024 3025 3027 3028 3029 3030 3032 3033 3035 3036 3038 3039 3041 3042 3043 3045 3045 3047 3048 3049 3049 3050 3051 3052 3053 3054 3055 3056 3057 3058
2973 2974 2975 2976 2976 2977 2978 2979 2980 2981 2982 2983 2983 2983 2982 2982 2983 2983 2983 2984 2985 2984 2984 2984 2985 2985 2985 2986 2986 2987 2988 2988 2989 2990 2992 2994 2995 2996 2998 2999 3001 3004 3005 3006 3007 3008 3010 3011 3012 3013 3015 3015 3017 3018 3019 3021 3022 3023 3025 3026 3027 3029 3030 3031 3033 3034 3036 3037 3039 3040 3041 3042 3043 3044 3045 3046 3047 3048 3049 3050 3051 3052 3053 3054 3055 3056
2969 2970 2971 2972 2973 2974 2975 2975 2976 2977 2978 2979 2979 2979 2979 2979 2980 2980 2980 2981 2981 2981 2981 2981 2982 2982 2983 2983 2983 2984 2984 2984 2985 2986 2988 2990 2992 2993 2994 2996 2999 3001 3002 3003 3004 3005 3007 3009 3010 3011 3012 3013 3014 3016 3017 3019 3020 3021 3023 3024 3025 3027 3028 3030 3031 3032 3034 3035 3036 3038 3039 3040 3041 3042 3043 3044 3045 3046 3047 3048 3049 3050 3051 3052 3053 3054
2965 2966 2967 2968 2969 2970 2971 2972 2972 2973 2974 2975 2975 2975 2975 2975 2976 2977 2978 2978 2978 2978 2978 2979 2979 2980 2980 2980 2980 2980 2980 2980 2981 2983 2985 2986 2987 2988 2990 2993 2995 2997 2998 2999 3000 3002 3004 3005 3007 3008 3009 3010 3012 3013 3015 3016 3018 3019 3020 3022 3023 3025 3026 3027 3029 3030 3031 3033 3034 3035 3037 3038 3039 3040 3041 3042 3043 3044 3045 3046 3047 3048 3049 3050 3051 3052
2961 2962 2963 2964 2965 2966 2967 2968 2968 2969 2970 2971 2972 2972 2972 2972 2973 2974 2975 2975 2975 2975 2976 2976 2976 2976 2976 2976 2976 2976 2976 2977 2978 2979 2981 2982 2983 2984 2986 2989 2992 2994 2995 2996 2997 2999 3001 3003 3004 3005 3007 3008 3009 3011 3012 3014 3015 3017 3018 3020 3021 3022 3024 3025 3026 3027 3029 3030 3032 3033 3035 3036 3037 3038 3039 3040 3040 3042 3043 3044 3045 3046 3047 3048 3049 3050
2956 2957 2958 2960 2961 2962 2963 2963 2964 2965 2966 2967 2968 2968 2969 2970 2970 2971 2972 2972 2973 2973 2973 2973 2973 2974 2973 2973 2973 2972 2973 2973 2974 2975 2977 2978 2979 2981 2984 2987 2990 2992 2994 2994 2995 2996 2998 3000 3002 3003 3004 3005 3007 3008 3010 3011 3013 3014 3016 3017 3018 3020 3021 3022 3024 3025 3026 3028 3029 3030 3032 3033 3035 3036 3037 3038 3039 3040 3041 3042 3043 3044 3045 3046 3047 3049
2951 2953 2954 2955 2956 2957 2958 2959 2960 2961 2962 2963 2964 2965 2966 2966 2967 2968 2969 2970 2970 2970 2970 2970 2970 2971 2971 2970 2970 2970 2970 2970 2970 2972 2973 2974 2976 2978 2981 2985 2988 2990 2991 2992 2993 2994 2996 2998 3000 3001 3002 3003 3005 3006 3008 3009 3010 3012 3013 3015 3016 3017 3019 3020 3021 3023 3024 3025 3027 3028 3030 3031 3032 3034 3035 3035 3036 3038 3039 3040 3041 3042 3043 3044 3045 3047
2946 2948 2949 2950 2952 2953 2954 2955 2955 2956 2957 2958 2960 2961 2962 2963 2964 2965 2966 2967 2968 2967 2967 2967 2968 2968 2968 2968 2968 2968 2968 2968 2968 2969 2970 2971 2973 2976 2979 2983 2985 2988 2989 2989 2990 2992 2994 2996 2998 2999 3000 3001 3003 3004 3005 3007 3008 3010 3011 3012 3014 3015 3016 3018 3019 3020 3022 3023 3025 3026 3027 3029 3030 3031 3032 3033 3035 3036 3037 3038 3039 3040 3041 3042 3043 3045
2941 2942 2944 2945 2946 2948 2949 2950 2951 2952 2953 2954 2955 2957 2958 2960 2961 2962 2963 2965 2965 2965 2965 2965 2965 2965 2965 2965 2965 2966 2966 2967 2968 2968 2969 2970 2972 2975 2978 2981 2983 2985 2986 2986 2988 2990 2991 2993 2995 2996 2998 2999 3000 3001 3003 3004 3005 3007 3009 3010 3011 3013 3014 3015 3017 3018 3020 3021 3022 3024 3025 3026 3028 3029 3030 3031 3032 3034 3035 3036 3037 3038 3039 3040 3041 3043
2935 2937 2938 2940 2941 2943 2944 2945 2947 2948 2949 2950 2952 2953 2955 2956 2957 2959 2960 2961 2962 2962 2962 2962 2962 2963 2963 2963 2963 2964 2965 2967 2967 2968 2969 2970 2972 2974 2976 2979 2981 2983 2984 2984 2986 2987 2989 2991 2992 2994 2995 2996 2997 2998 3000 3002 3003 3005 3006 3008 3009 3011 3012 3014 3015 3016 3018 3019 3020 3022 3023 3024 3025 3027 3028 3029 3030 3031 3032 3034 3035 3035 3037 3039 3040 3041
2930 2931 2932 2934 2936 2938 2939 2941 2942 2944 2945 2947 2948 2950 2951 2952 2954 2956 2957 2958 2959 2959 2959 2959 2960 2960 2960 2960 2961 2963 2964 2965 2966 2967 2968 2970 2972 2973 2975 2977 2979 2980 2981 2982 2983 2985 2986 2988 2990 2991 2992 2993 2994 2995 2997 2999 3001 3002 3004 3005 3007 3009 3010 3011 3013 3014 3016 3017 3018 3020 3021 3022 3023 3024 3025 3026 3028 3029 3030 3031 3032 3033 3035 3036 3037 3039
2923 2925 2927 2929 2930 2932 2934 2936 2938 2940 2941 2943 2945 2946 2948 2949 2951 2953 2954 2955 2955 2956 2956 2957 2957 2957 2958 2958 2959 2960 2962 2963 2964 2965 2966 2968 2969 2971 2972 2974 2976 2978 2979 2980 2981 2982 2984 2985 2986 2987 2989 2990 2991 2993 2995 2997 2998 3000 3002 3003 3005 3006 3008 3009 3010 3012 3013 3015 3016 3017 3018 3020 3021 3022 3023 3024 3025 3027 3028 3029 3030 3031 3032 3034 3035 3037
2917 2919 2921 2923 2925 2927 2929 2931 2933 2935 2938 2940 2941 2943 2945 2946 2947 2949 2950 2951 2952 2953 2953 2954 2954 2955 2955 2956 2957 2958 2959 2960 2962 2963 2964 2965 2966 2968 2969 2971 2973 2975 2976 2977 2978 2980 2981 2982 2983 2984 2986 2987 2989 2991 2993 2995 2996 2998 3000 3001 3003 3004 3005 3007 3008 3010 3011 3012 3014 3015 3016 3017 3018 3020 3020 3022 3023 3025 3026 3027 3028 3029 3030 3032 3033 3034
2910 2913 2916 2918 2920 2922 2924 2926 2929 2931 2934 2936 2938 2939 2940 2942 2943 2944 2946 2947 2949 2949 2950 2951 2952 2952 2952 2953 2954 2955 2956 2958 2959 2960 2961 2963 2964 2965 2966 2968 2970 2972 2973 2974 2975 2976 2978 2979 2981 2982 2984 2985 2987 2989 2990 2992 2994 2995 2997 2998 3000 3001 3003 3005 3006 3007 3009 3010 3011 3012 3014 3015 3016 3017 3018 3020 3021 3022 3024 3025 3026 3027 3028 3030 3031 3032
2905 2907 2910 2912 2915 2917 2919 2921 2924 2926 2929 2931 2933 2934 2935 2937 2938 2940 2941 2943 2945 2946 2947 2948 2949 2949 2950 2950 2951 2952 2954 2955 2956 2957 2959 2960 2961 2962 2964 2965 2967 2968 2970 2971 2972 2974 2975 2976 2978 2979 2981 2982 2984 2986 2988 2990 2991 2993 2994 2996 2997 2999 3001 3002 3004 3005 3006 3007 3009 3010 3011 3012 3014 3015 3016 3017 3019 3020 3021 3023 3024 3025 3026 3027 3029 3030
2898 2900 2903 2906 2909 2911 2914 2916 2919 2921 2923 2925 2927 2928 2930 2931 2933 2935 2936 2939 2940 2942 2943 2945 2945 2946 2946 2947 2948 2950 2951 2952 2953 2954 2955 2957 2958 2959 2961 2962 2964 2965 2966 2968 2970 2971 2972 2974 2975 2976 2978 2980 2981 2984 2985 2987 2989 2990 2992 2993 2995 2997 2998 3000 3001 3002 3003 3005 3006 3007 3008 3010 3011 3012 3014 3015 3016 3017 3019 3020 3021 3022 3024 3025 3026 3028
2892 2894 2897 2900 2903 2905 2908 2910 2913 2915 2917 2919 2921 2923 2925 2927 2929 2930 2932 2934 2936 2938 2939 2941 2942 2942 2943 2944 2945 2946 2948 2949 2950 2951 2953 2954 2955 2956 2958 2959 2961 2962 2964 2965 2966 2968 2970 2971 2972 2974 2975 2977 2979 2981 2983 2984 2986 2987 2989 2990 2992 2993 2995 2996 2998 3000 3001 3002 3004 3005 3006 3007 3008 3010 3011 3012 3013 3015 3016 3017 3018 3020 3021 3023 3024 3026
2886 2888 2891 2894 2897 2899 2902 2904 2906 2908 2910 2913 2915 2917 2920 2922 2924 2926 2928 2930 2932 2934 2935 2937 2938 2939 2940 2940 2941 2943 2945 2946 2948 2949 2950 2951 2952 2953 2955 2956 2958 2959 2961 2962 2964 2965 2967 2968 2970 2971 2973 2975 2976 2978 2980 2981 2983 2984 2986 2987 2989 2990 2992 2994 2996 2997 2999 3000 3001 3002 3003 3004 3005 3007 3008 3009 3010 3011 3013 3014 3016 3017 3019 3020 3022 3023
2881 2883 2885 2888 2890 2893 2896 2898 2900 2902 2905 2908 2910 2912 2915 2917 2920 2921 2923 2925 2927 2929 2931 2932 2934 2935 2935 2937 2938 2940 2942 2943 2945 2945 2946 2947 2949 2950 2951 2953 2955 2956 2958 2960 2961 2962 2964 2965 2967 2968 2970 2972 2974 2975 2977 2978 2980 2981 2983 2985 2986 2988 2990 2991 2993 2994 2995 2997 2998 2999 3000 3001 3002 3004 3005 3006 3008 3009 3010 3012 3013 3015 3016 3018 3019 3021
2877 2879 2880 2882 2885 2887 2890 2892 2894 2897 2900 2902 2905 2907 2910 2912 2915 2916 2918 2920 2923 2925 2926 2928 2930 2930 2931 2933 2935 2937 2939 2940 2941 2942 2943 2944 2945 2947 2948 2950 2951 2953 2955 2956 2958 2960 2961 2963 2964 2966 2967 2969 2971 2972 2974 2975 2977 2978 2980 2981 2983 2985 2987 2988 2990 2991 2992 2994 2995 2996 2997 2998 2999 3000 3002 3004 3005 3006 3008 3009 3011 3012 3014 3015 3017 3019
2872 2874 2876 2878 2880 2882 2884 2887 2890 2892 2895 2897 2899 2902 2904 2907 2909 2911 2913 2915 2918 2920 2922 2924 2925 2926 2927 2929 2932 2934 2935 2937 2938 2939 2940 2941 2942 2944 2945 2947 2948 2950 2951 2953 2955 2957 2959 2960 2961 2963 2965 2966 2968 2970 2971 2973 2974 2975 2977 2979 2980 2982 2983 2985 2987 2989 2990 2991 2992 2993 2994 2995 2996 2997 2999 3001 3002 3004 3005 3007 3008 3010 3011 3013 3014 3016
2867 2869 2871 2873 2875 2877 2880 2882 2885 2887 2889 2891 2894 2897 2899 2902 2904 2906 2908 2910 2912 2915 2917 2919 2920 2922 2923 2926 2928 2930 2932 2934 2935 2935 2937 2938 2939 2941 2942 2944 2945 2947 2949 2950 2952 2954 2955 2957 2958 2960 2962 2963 2965 2967 2968 2970 2971 2973 2974 2976 2977 2979 2980 2982 2984 2985 2987 2988 2989 2990 2990 2992 2993 2995 2996 2998 2999 3001 3002 3004 3006 3007 3009 3010 3012 3014
2862 2865 2867 2869 2871 2873 2875 2877 2879 2882 2884 2886 2889 2892 2895 2897 2899 2901 2903 2905 2908 2910 2912 2914 2915 2917 2919 2922 2924 2927 2929 2930 2931 2932 2933 2935 2936 2938 2939 2941 2942 2944 2946 2947 2949 2951 2952 2954 2955 2957 2959 2960 2962 2964 2966 2967 2969 2970 2971 2973 2975 2976 2978 2980 2981 2982 2983 2984 2985 2986 2987 2989 2990 2991 2993 2995 2996 2998 3000 3001 3003 3005 3006 3008 3009 3011
2857 2859 2862 2864 2866 2868 2870 2872 2875 2877 2880 2882 2884 2887 2890 2893 2895 2897 2899 2901 2903 2905 2907 2909 2911 2913 2915 2918 2920 2923 2925 2926 2927 2929 2930 2931 2933 2934 2936 2938 2939 2941 2943 2945 2946 2948 2950 2951 2953 2954 2956 2958 2959 2961 2963 2965 2966 2967 2969 2970 2972 2973 2975 2976 2978 2979 2980 2981 2982 2983 2984 2985 2987 2988 2990 2991 2993 2995 2997 2999 3000 3002 3004 3005 3007 3009
2852 2854 2857 2860 2862 2864 2866 2868 2870 2873 2875 2877 2880 2882 2885 2888 2890 2892 2894 2897 2899 2901 2903 2905 2907 2909 2911 2914 2916 2919 2920 2922 2924 2925 2926 2928 2930 2931 2933 2935 2936 2938 2940 2941 2943 2945 2946 2948 2950 2951 2953 2955 2956 2958 2960 2962 2963 2965 2966 2967 2969 2970 2972 2973 2975 2976 2977 2978 2979 2980 2981 2982 2983 2985 2986 2988 2990 2992 2994 2995 2997 2999 3001 3003 3005 3006